Time,TemperatureF,DewpointF,PressureIn,WindDirection,WindDirectionDegrees,WindSpeedMPH,WindSpeedGustMPH,Humidity,HourlyPrecipIn,Conditions,Clouds,dailyrainin,SoftwareType,DateUTC
2013-04-23 00:00:00,47.0,40.2,30.22,ENE,60,0.0,1.0,77,0.00,,SKC,0.00,VWS V14.01,2013-04-23 04:00:00,
2013-04-23 00:01:00,47.0,40.2,30.22,ENE,60,0.0,1.0,77,0.00,,SKC,0.00,VWS V14.01,2013-04-23 04:01:00,
2013-04-23 00:06:00,46.8,40.0,30.22,ENE,60,0.0,0.0,77,0.00,,SKC,0.00,VWS V14.01,2013-04-23 04:06:00,
2013-04-23 00:07:00,46.7,39.9,30.22,ENE,60,0.0,0.0,77,0.00,,SKC,0.00,VWS V14.01,2013-04-23 04:07:00,
2013-04-23 00:12:00,46.5,39.7,30.22,ENE,60,0.0,0.0,77,0.00,,SKC,0.00,VWS V14.01,2013-04-23 04:12:00,
2013-04-23 00:17:00,46.3,39.5,30.22,ENE,60,0.0,0.0,77,0.00,,SKC,0.00,VWS V14.01,2013-04-23 04:17:00,
2013-04-23 00:22:00,46.1,39.6,30.22,ENE,60,0.0,0.0,78,0.00,,SKC,0.00,VWS V14.01,2013-04-23 04:22:00,
2013-04-23 00:27:00,45.8,39.3,30.22,ENE,60,0.0,0.0,78,0.00,,SKC,0.00,VWS V14.01,2013-04-23 04:27:00,
2013-04-23 00:32:00,45.7,39.9,30.22,ENE,60,0.0,0.0,80,0.00,,SKC,0.00,VWS V14.01,2013-04-23 04:32:00,
2013-04-23 00:37:00,45.5,40.0,30.22,ENE,60,0.0,0.0,81,0.00,,SKC,0.00,VWS V14.01,2013-04-23 04:37:00,
2013-04-23 00:42:00,45.3,40.1,30.22,ENE,60,0.0,0.0,82,0.00,,SKC,0.00,VWS V14.01,2013-04-23 04:42:00,
2013-04-23 00:47:00,45.0,40.2,30.22,ENE,60,0.0,0.0,83,0.00,,SKC,0.00,VWS V14.01,2013-04-23 04:47:00,
2013-04-23 00:52:00,44.7,39.9,30.22,ENE,60,0.0,0.0,83,0.00,,SKC,0.00,VWS V14.01,2013-04-23 04:52:00,
2013-04-23 00:57:00,44.3,39.2,30.22,ENE,60,0.0,0.0,82,0.00,,SKC,0.00,VWS V14.01,2013-04-23 04:57:00,
2013-04-23 01:00:00,44.1,39.3,30.22,ENE,60,0.0,0.0,83,0.00,,-RA,0.00,VWS V14.01,2013-04-23 05:00:00,
2013-04-23 01:02:00,44.0,39.2,30.22,ENE,60,0.0,0.0,83,0.00,,SKC,0.00,VWS V14.01,2013-04-23 05:02:00,
2013-04-23 01:07:00,43.8,39.3,30.22,ENE,60,0.0,0.0,84,0.00,,SKC,0.00,VWS V14.01,2013-04-23 05:07:00,
2013-04-23 01:12:00,43.5,39.0,30.22,ENE,60,0.0,0.0,84,0.00,,SKC,0.00,VWS V14.01,2013-04-23 05:12:00,
2013-04-23 01:17:00,43.2,39.0,30.21,ENE,60,0.0,0.0,85,0.00,,SKC,0.00,VWS V14.01,2013-04-23 05:17:00,
2013-04-23 01:22:00,43.0,38.8,30.21,ENE,60,0.0,1.0,85,0.00,,SKC,0.00,VWS V14.01,2013-04-23 05:22:00,
2013-04-23 01:27:00,43.1,38.9,30.21,ENE,60,0.0,1.0,85,0.00,,SKC,0.00,VWS V14.01,2013-04-23 05:27:00,
2013-04-23 01:32:00,43.4,39.2,30.21,ENE,60,0.0,1.0,85,0.00,,SKC,0.00,VWS V14.01,2013-04-23 05:32:00,
2013-04-23 01:37:00,43.8,39.3,30.21,ENE,60,0.0,1.0,84,0.00,,SKC,0.00,VWS V14.01,2013-04-23 05:37:00,
2013-04-23 01:42:00,44.4,39.3,30.21,ENE,60,0.0,2.0,82,0.00,,SKC,0.00,VWS V14.01,2013-04-23 05:42:00,
2013-04-23 01:47:00,44.7,38.9,30.21,ENE,60,1.0,2.0,80,0.00,,SKC,0.00,VWS V14.01,2013-04-23 05:47:00,
2013-04-23 01:52:00,45.0,38.9,30.21,ENE,60,0.0,2.0,79,0.00,,SKC,0.00,VWS V14.01,2013-04-23 05:52:00,
2013-04-23 01:57:00,45.0,38.6,30.21,ENE,60,1.0,2.0,78,0.00,,SKC,0.00,VWS V14.01,2013-04-23 05:57:00,
2013-04-23 02:00:00,45.1,38.7,30.20,ENE,60,0.0,2.0,78,0.00,,-RA,0.00,VWS V14.01,2013-04-23 06:00:00,
2013-04-23 02:02:00,45.2,38.8,30.20,ENE,60,1.0,2.0,78,0.00,,SKC,0.00,VWS V14.01,2013-04-23 06:02:00,
2013-04-23 02:07:00,45.2,38.8,30.20,ENE,60,0.0,3.0,78,0.00,,SKC,0.00,VWS V14.01,2013-04-23 06:07:00,
2013-04-23 02:12:00,45.1,38.3,30.20,ENE,60,0.0,3.0,77,0.00,,SKC,0.00,VWS V14.01,2013-04-23 06:12:00,
2013-04-23 02:17:00,45.0,38.6,30.20,ENE,60,0.0,3.0,78,0.00,,SKC,0.00,VWS V14.01,2013-04-23 06:17:00,
2013-04-23 02:22:00,44.9,38.5,30.20,ENE,60,0.0,3.0,78,0.00,,SKC,0.00,VWS V14.01,2013-04-23 06:22:00,
2013-04-23 02:27:00,44.8,38.4,30.20,ENE,60,0.0,3.0,78,0.00,,SKC,0.00,VWS V14.01,2013-04-23 06:27:00,
2013-04-23 02:32:00,44.7,38.3,30.19,ENE,60,0.0,3.0,78,0.00,,SKC,0.00,VWS V14.01,2013-04-23 06:32:00,
2013-04-23 02:37:00,44.6,38.2,30.20,ENE,60,0.0,3.0,78,0.00,,SKC,0.00,VWS V14.01,2013-04-23 06:37:00,
2013-04-23 02:42:00,44.6,38.2,30.19,ENE,60,0.0,3.0,78,0.00,,SKC,0.00,VWS V14.01,2013-04-23 06:42:00,
2013-04-23 02:47:00,44.5,38.1,30.19,ENE,60,0.0,3.0,78,0.00,,SKC,0.00,VWS V14.01,2013-04-23 06:47:00,
2013-04-23 02:52:00,44.4,38.0,30.19,ENE,60,0.0,3.0,78,0.00,,SKC,0.00,VWS V14.01,2013-04-23 06:52:00,
2013-04-23 02:57:00,44.2,37.8,30.19,ENE,60,0.0,3.0,78,0.00,,SKC,0.00,VWS V14.01,2013-04-23 06:57:00,
2013-04-23 03:00:00,44.1,38.0,30.19,ENE,60,0.0,3.0,79,0.00,,-RA,0.00,VWS V14.01,2013-04-23 07:00:00,
2013-04-23 03:02:00,44.1,38.0,30.19,ENE,60,0.0,0.0,79,0.00,,SKC,0.00,VWS V14.01,2013-04-23 07:02:00,
2013-04-23 03:07:00,44.1,38.0,30.19,ENE,60,0.0,0.0,79,0.00,,SKC,0.00,VWS V14.01,2013-04-23 07:07:00,
2013-04-23 03:12:00,44.0,37.9,30.19,ENE,60,0.0,1.0,79,0.00,,SKC,0.00,VWS V14.01,2013-04-23 07:12:00,
2013-04-23 03:17:00,43.8,37.7,30.19,ENE,60,0.0,1.0,79,0.00,,SKC,0.00,VWS V14.01,2013-04-23 07:17:00,
2013-04-23 03:22:00,43.5,37.8,30.19,ENE,60,0.0,1.0,80,0.00,,SKC,0.00,VWS V14.01,2013-04-23 07:22:00,
2013-04-23 03:27:00,43.2,37.8,30.19,ENE,60,0.0,1.0,81,0.00,,SKC,0.00,VWS V14.01,2013-04-23 07:27:00,
2013-04-23 03:32:00,43.0,37.6,30.19,ENE,60,0.0,1.0,81,0.00,,SKC,0.00,VWS V14.01,2013-04-23 07:32:00,
2013-04-23 03:37:00,43.0,37.9,30.19,ENE,60,0.0,1.0,82,0.00,,SKC,0.00,VWS V14.01,2013-04-23 07:37:00,
2013-04-23 03:42:00,43.0,37.9,30.18,ENE,60,0.0,1.0,82,0.00,,SKC,0.00,VWS V14.01,2013-04-23 07:42:00,
2013-04-23 03:47:00,43.1,38.0,30.18,ENE,60,1.0,2.0,82,0.00,,SKC,0.00,VWS V14.01,2013-04-23 07:47:00,
2013-04-23 03:51:00,43.1,37.7,30.18,NE,45,0.0,2.0,81,0.00,,SKC,0.00,VWS V14.01,2013-04-23 07:51:00,
2013-04-23 03:56:00,43.1,38.0,30.18,NE,45,0.0,2.0,82,0.00,,SKC,0.00,VWS V14.01,2013-04-23 07:56:00,
2013-04-23 04:00:00,43.1,38.0,30.18,NE,45,0.0,2.0,82,0.00,,-RA,0.00,VWS V14.01,2013-04-23 08:00:00,
2013-04-23 04:01:00,43.1,38.0,30.19,NE,45,0.0,0.0,82,0.00,,SKC,0.00,VWS V14.01,2013-04-23 08:01:00,
2013-04-23 04:06:00,43.1,38.0,30.18,NE,45,0.0,2.0,82,0.00,,SKC,0.00,VWS V14.01,2013-04-23 08:06:00,
2013-04-23 04:11:00,43.1,38.0,30.18,NE,45,0.0,2.0,82,0.00,,SKC,0.00,VWS V14.01,2013-04-23 08:11:00,
2013-04-23 04:16:00,43.1,38.0,30.18,NE,45,0.0,2.0,82,0.00,,SKC,0.00,VWS V14.01,2013-04-23 08:16:00,
2013-04-23 04:21:00,43.0,38.2,30.18,NE,45,0.0,2.0,83,0.00,,SKC,0.00,VWS V14.01,2013-04-23 08:21:00,
2013-04-23 04:26:00,42.9,38.1,30.18,NE,45,0.0,2.0,83,0.00,,SKC,0.00,VWS V14.01,2013-04-23 08:26:00,
2013-04-23 04:31:00,42.7,38.2,30.18,NE,45,0.0,3.0,84,0.00,,SKC,0.00,VWS V14.01,2013-04-23 08:31:00,
2013-04-23 04:36:00,42.7,38.2,30.18,NE,45,0.0,3.0,84,0.00,,SKC,0.00,VWS V14.01,2013-04-23 08:36:00,
2013-04-23 04:41:00,42.7,38.2,30.18,NE,45,0.0,3.0,84,0.00,,SKC,0.00,VWS V14.01,2013-04-23 08:41:00,
2013-04-23 04:46:00,42.7,38.2,30.19,NE,45,0.0,3.0,84,0.00,,SKC,0.00,VWS V14.01,2013-04-23 08:46:00,
2013-04-23 04:51:00,42.7,38.2,30.18,NE,45,0.0,3.0,84,0.00,,SKC,0.00,VWS V14.01,2013-04-23 08:51:00,
2013-04-23 04:56:00,42.7,38.5,30.18,NE,45,0.0,3.0,85,0.00,,SKC,0.00,VWS V14.01,2013-04-23 08:56:00,
2013-04-23 05:00:00,42.6,38.4,30.19,NE,45,0.0,3.0,85,0.00,,-RA,0.00,VWS V14.01,2013-04-23 09:00:00,
2013-04-23 05:01:00,42.6,38.4,30.19,NE,45,0.0,0.0,85,0.00,,SKC,0.00,VWS V14.01,2013-04-23 09:01:00,
2013-04-23 05:06:00,42.5,38.3,30.19,NE,45,0.0,1.0,85,0.00,,SKC,0.00,VWS V14.01,2013-04-23 09:06:00,
2013-04-23 05:11:00,42.6,38.4,30.19,NE,45,0.0,2.0,85,0.00,,SKC,0.00,VWS V14.01,2013-04-23 09:11:00,
2013-04-23 05:16:00,42.6,38.4,30.19,NE,45,0.0,2.0,85,0.00,,SKC,0.00,VWS V14.01,2013-04-23 09:16:00,
2013-04-23 05:21:00,42.6,38.7,30.19,NE,45,0.0,2.0,86,0.00,,SKC,0.00,VWS V14.01,2013-04-23 09:21:00,
2013-04-23 05:26:00,42.5,38.6,30.19,NE,45,0.0,2.0,86,0.00,,SKC,0.00,VWS V14.01,2013-04-23 09:26:00,
2013-04-23 05:31:00,42.5,38.6,30.19,NE,45,0.0,2.0,86,0.00,,SKC,0.00,VWS V14.01,2013-04-23 09:31:00,
2013-04-23 05:36:00,42.4,38.5,30.19,NE,45,0.0,2.0,86,0.00,,SKC,0.00,VWS V14.01,2013-04-23 09:36:00,
2013-04-23 05:41:00,42.3,38.4,30.18,ENE,69,2.0,5.0,86,0.00,,SKC,0.00,VWS V14.01,2013-04-23 09:41:00,
2013-04-23 05:46:00,42.2,38.6,30.18,ENE,69,0.0,5.0,87,0.00,,SKC,0.00,VWS V14.01,2013-04-23 09:46:00,
2013-04-23 05:51:00,42.2,38.6,30.18,ENE,57,2.0,5.0,87,0.00,,SKC,0.00,VWS V14.01,2013-04-23 09:51:00,
2013-04-23 05:56:00,42.1,38.5,30.18,ENE,57,0.0,5.0,87,0.00,,SKC,0.00,VWS V14.01,2013-04-23 09:56:00,
2013-04-23 06:00:00,42.0,38.4,30.18,ENE,57,1.0,5.0,87,0.00,,-RA,0.00,VWS V14.01,2013-04-23 10:00:00,
2013-04-23 06:01:00,42.0,38.4,30.18,ENE,57,2.0,3.0,87,0.00,,SKC,0.00,VWS V14.01,2013-04-23 10:01:00,
2013-04-23 06:06:00,42.0,38.4,30.19,ENE,57,1.0,4.0,87,0.00,,SKC,0.00,VWS V14.01,2013-04-23 10:06:00,
2013-04-23 06:11:00,42.0,38.7,30.19,ENE,57,2.0,4.0,88,0.00,,SKC,0.00,VWS V14.01,2013-04-23 10:11:00,
2013-04-23 06:16:00,42.0,38.7,30.19,ENE,57,2.0,5.0,88,0.00,,SKC,0.00,VWS V14.01,2013-04-23 10:16:00,
2013-04-23 06:21:00,41.9,38.6,30.19,NE,53,3.0,5.0,88,0.00,,SKC,0.00,VWS V14.01,2013-04-23 10:21:00,
2013-04-23 06:26:00,41.8,38.5,30.19,NE,53,2.0,5.0,88,0.00,,SKC,0.00,VWS V14.01,2013-04-23 10:26:00,
2013-04-23 06:31:00,41.8,38.5,30.19,NE,54,0.0,5.0,88,0.00,,SKC,0.00,VWS V14.01,2013-04-23 10:31:00,
2013-04-23 06:36:00,41.7,38.4,30.19,NE,54,1.0,5.0,88,0.00,,SKC,0.00,VWS V14.01,2013-04-23 10:36:00,
2013-04-23 06:41:00,41.7,38.4,30.19,NE,54,1.0,5.0,88,0.00,,SKC,0.00,VWS V14.01,2013-04-23 10:41:00,
2013-04-23 06:46:00,41.7,38.4,30.20,NE,54,0.0,5.0,88,0.00,,SKC,0.00,VWS V14.01,2013-04-23 10:46:00,
2013-04-23 06:51:00,41.8,38.5,30.20,NE,54,0.0,5.0,88,0.00,,SKC,0.00,VWS V14.01,2013-04-23 10:51:00,
2013-04-23 06:56:00,41.8,38.8,30.20,NE,54,1.0,5.0,89,0.00,,SKC,0.00,VWS V14.01,2013-04-23 10:56:00,
2013-04-23 07:00:00,41.9,38.9,30.20,NE,54,1.0,5.0,89,0.00,,-RA,0.00,VWS V14.01,2013-04-23 11:00:00,
2013-04-23 07:01:00,41.9,38.9,30.20,NE,54,0.0,2.0,89,0.00,,SKC,0.00,VWS V14.01,2013-04-23 11:01:00,
2013-04-23 07:06:00,42.1,39.1,30.20,NE,54,1.0,4.0,89,0.00,,SKC,0.00,VWS V14.01,2013-04-23 11:06:00,
2013-04-23 07:11:00,42.3,39.3,30.20,ENE,59,0.0,4.0,89,0.00,,SKC,0.00,VWS V14.01,2013-04-23 11:11:00,
2013-04-23 07:16:00,42.5,39.2,30.20,NE,47,1.0,4.0,88,0.00,,SKC,0.00,VWS V14.01,2013-04-23 11:16:00,
2013-04-23 07:21:00,42.7,39.4,30.20,NE,44,0.0,4.0,88,0.00,,SKC,0.00,VWS V14.01,2013-04-23 11:21:00,
2013-04-23 07:26:00,42.9,39.6,30.20,NE,41,0.0,4.0,88,0.00,,SKC,0.00,VWS V14.01,2013-04-23 11:26:00,
2013-04-23 07:31:00,43.2,39.9,30.21,ENE,71,0.0,4.0,88,0.00,,SKC,0.00,VWS V14.01,2013-04-23 11:31:00,
2013-04-23 07:36:00,43.4,39.8,30.21,NE,40,0.0,5.0,87,0.00,,SKC,0.00,VWS V14.01,2013-04-23 11:36:00,
2013-04-23 07:41:00,43.8,40.2,30.21,ENE,62,2.0,5.0,87,0.00,,SKC,0.00,VWS V14.01,2013-04-23 11:41:00,
2013-04-23 07:46:00,44.2,40.6,30.21,ENE,62,1.0,5.0,87,0.00,,SKC,0.00,VWS V14.01,2013-04-23 11:46:00,
2013-04-23 07:51:00,44.4,40.5,30.21,ENE,63,3.0,5.0,86,0.00,,SKC,0.00,VWS V14.01,2013-04-23 11:51:00,
2013-04-23 07:56:00,44.8,40.9,30.21,ENE,61,3.0,8.0,86,0.00,,SKC,0.00,VWS V14.01,2013-04-23 11:56:00,
2013-04-23 08:00:00,45.0,41.1,30.21,ENE,64,1.0,8.0,86,0.00,,-RA,0.00,VWS V14.01,2013-04-23 12:00:00,
2013-04-23 08:01:00,45.0,41.1,30.21,ENE,68,6.0,8.0,86,0.00,,SKC,0.00,VWS V14.01,2013-04-23 12:01:00,
2013-04-23 08:06:00,45.4,41.2,30.21,NE,53,3.0,8.0,85,0.00,,SKC,0.00,VWS V14.01,2013-04-23 12:06:00,
2013-04-23 08:11:00,45.8,41.5,30.21,ENE,58,3.0,8.0,85,0.00,,SKC,0.00,VWS V14.01,2013-04-23 12:11:00,
2013-04-23 08:16:00,46.1,41.8,30.21,NE,46,3.0,8.0,85,0.00,,SKC,0.00,VWS V14.01,2013-04-23 12:16:00,
2013-04-23 08:21:00,46.7,42.1,30.21,NE,54,5.0,8.0,84,0.00,,SKC,0.00,VWS V14.01,2013-04-23 12:21:00,
2013-04-23 08:26:00,47.1,42.5,30.20,ENE,61,3.0,8.0,84,0.00,,SKC,0.00,VWS V14.01,2013-04-23 12:26:00,
2013-04-23 08:31:00,47.6,43.0,30.20,East,88,4.0,10.0,84,0.00,,SKC,0.00,VWS V14.01,2013-04-23 12:31:00,
2013-04-23 08:36:00,48.0,43.1,30.20,ENE,57,3.0,10.0,83,0.00,,SKC,0.00,VWS V14.01,2013-04-23 12:36:00,
2013-04-23 08:41:00,48.5,43.6,30.21,ENE,65,5.0,10.0,83,0.00,,SKC,0.00,VWS V14.01,2013-04-23 12:41:00,
2013-04-23 08:46:00,49.2,44.0,30.21,NE,42,2.0,10.0,82,0.00,,SKC,0.00,VWS V14.01,2013-04-23 12:46:00,
2013-04-23 08:51:00,49.6,44.0,30.21,ENE,65,1.0,10.0,81,0.00,,SKC,0.00,VWS V14.01,2013-04-23 12:51:00,
2013-04-23 08:56:00,50.6,45.0,30.21,NNE,19,4.0,10.0,81,0.00,,SKC,0.00,VWS V14.01,2013-04-23 12:56:00,
2013-04-23 09:00:00,51.3,45.3,30.20,ENE,76,2.0,10.0,80,0.00,,-RA,0.00,VWS V14.01,2013-04-23 13:00:00,
2013-04-23 09:01:00,51.4,45.5,30.20,ENE,57,3.0,4.0,80,0.00,,SKC,0.00,VWS V14.01,2013-04-23 13:01:00,
2013-04-23 09:06:00,52.0,45.7,30.21,ENE,64,4.0,13.0,79,0.00,,SKC,0.00,VWS V14.01,2013-04-23 13:06:00,
2013-04-23 09:11:00,52.6,46.3,30.21,ENE,66,9.0,13.0,79,0.00,,SKC,0.00,VWS V14.01,2013-04-23 13:11:00,
2013-04-23 09:16:00,53.0,46.0,30.21,ENE,69,9.0,13.0,77,0.00,,SKC,0.00,VWS V14.01,2013-04-23 13:16:00,
2013-04-23 09:21:00,53.5,46.5,30.22,North,360,7.0,13.0,77,0.00,,SKC,0.00,VWS V14.01,2013-04-23 13:21:00,
2013-04-23 09:26:00,54.1,46.7,30.22,ENE,65,9.0,13.0,76,0.00,,SKC,0.00,VWS V14.01,2013-04-23 13:26:00,
2013-04-23 09:31:00,54.5,47.1,30.22,North,355,3.0,13.0,76,0.00,,SKC,0.00,VWS V14.01,2013-04-23 13:31:00,
2013-04-23 09:36:00,54.7,46.6,30.22,ENE,59,4.0,14.0,74,0.00,,SKC,0.00,VWS V14.01,2013-04-23 13:36:00,
2013-04-23 09:41:00,54.9,47.1,30.22,ENE,65,9.0,14.0,75,0.00,,SKC,0.00,VWS V14.01,2013-04-23 13:41:00,
2013-04-23 09:46:00,54.9,46.8,30.22,ENE,57,7.0,14.0,74,0.00,,SKC,0.00,VWS V14.01,2013-04-23 13:46:00,
2013-04-23 09:51:00,55.2,47.1,30.22,East,85,9.0,14.0,74,0.00,,SKC,0.00,VWS V14.01,2013-04-23 13:51:00,
2013-04-23 09:56:00,55.4,47.3,30.22,ENE,76,5.0,14.0,74,0.00,,SKC,0.00,VWS V14.01,2013-04-23 13:56:00,
2013-04-23 10:00:00,55.8,47.3,30.22,ENE,61,5.0,14.0,73,0.00,,-RA,0.00,VWS V14.01,2013-04-23 14:00:00,
2013-04-23 10:01:00,55.8,47.3,30.22,ENE,63,3.0,5.0,73,0.00,,SKC,0.00,VWS V14.01,2013-04-23 14:01:00,
2013-04-23 10:06:00,56.3,47.8,30.22,NE,38,2.0,10.0,73,0.00,,SKC,0.00,VWS V14.01,2013-04-23 14:06:00,
2013-04-23 10:11:00,56.6,47.7,30.22,ENE,59,4.0,10.0,72,0.00,,SKC,0.00,VWS V14.01,2013-04-23 14:11:00,
2013-04-23 10:16:00,57.2,48.3,30.22,NNE,30,3.0,10.0,72,0.00,,SKC,0.00,VWS V14.01,2013-04-23 14:16:00,
2013-04-23 10:21:00,57.4,48.5,30.22,NE,56,1.0,10.0,72,0.00,,SKC,0.00,VWS V14.01,2013-04-23 14:21:00,
2013-04-23 10:26:00,57.7,48.4,30.22,ENE,61,5.0,11.0,71,0.00,,SKC,0.00,VWS V14.01,2013-04-23 14:26:00,
2013-04-23 10:31:00,57.9,48.6,30.22,NE,36,9.0,11.0,71,0.00,,SKC,0.00,VWS V14.01,2013-04-23 14:31:00,
2013-04-23 10:36:00,58.1,48.8,30.22,East,82,3.0,11.0,71,0.00,,SKC,0.00,VWS V14.01,2013-04-23 14:36:00,
2013-04-23 10:41:00,58.7,49.0,30.22,ENE,69,0.0,11.0,70,0.00,,SKC,0.00,VWS V14.01,2013-04-23 14:41:00,
2013-04-23 10:46:00,59.0,49.2,30.22,NNE,13,0.0,11.0,70,0.00,,SKC,0.00,VWS V14.01,2013-04-23 14:46:00,
2013-04-23 10:51:00,59.9,49.7,30.21,ENE,63,4.0,13.0,69,0.00,,SKC,0.00,VWS V14.01,2013-04-23 14:51:00,
2013-04-23 10:56:00,59.8,49.6,30.21,ENE,63,5.0,15.0,69,0.00,,SKC,0.00,VWS V14.01,2013-04-23 14:56:00,
2013-04-23 11:00:00,59.3,49.1,30.22,NE,39,1.0,15.0,69,0.00,,-RA,0.00,VWS V14.01,2013-04-23 15:00:00,
2013-04-23 11:01:00,59.4,49.6,30.22,NNE,27,5.0,7.0,70,0.00,,SKC,0.00,VWS V14.01,2013-04-23 15:01:00,
2013-04-23 11:06:00,59.9,50.1,30.23,NE,50,1.0,13.0,70,0.00,,SKC,0.00,VWS V14.01,2013-04-23 15:06:00,
2013-04-23 11:11:00,60.5,50.3,30.22,NE,45,6.0,13.0,69,0.00,,SKC,0.00,VWS V14.01,2013-04-23 15:11:00,
2013-04-23 11:16:00,60.9,49.9,30.22,NE,50,3.0,13.0,67,0.00,,SKC,0.00,VWS V14.01,2013-04-23 15:16:00,
2013-04-23 11:21:00,60.8,49.8,30.22,ENE,76,9.0,13.0,67,0.00,,SKC,0.00,VWS V14.01,2013-04-23 15:21:00,
2013-04-23 11:26:00,61.2,50.6,30.21,NNW,346,3.0,13.0,68,0.00,,SKC,0.00,VWS V14.01,2013-04-23 15:26:00,
2013-04-23 11:31:00,61.8,50.7,30.21,North,355,1.0,13.0,67,0.00,,SKC,0.00,VWS V14.01,2013-04-23 15:31:00,
2013-04-23 11:36:00,62.3,51.2,30.22,NE,34,3.0,13.0,67,0.00,,SKC,0.00,VWS V14.01,2013-04-23 15:36:00,
2013-04-23 11:41:00,62.8,50.9,30.22,NE,53,0.0,13.0,65,0.00,,SKC,0.00,VWS V14.01,2013-04-23 15:41:00,
2013-04-23 11:46:00,63.2,51.7,30.22,NNE,24,0.0,13.0,66,0.00,,SKC,0.00,VWS V14.01,2013-04-23 15:46:00,
2013-04-23 11:51:00,63.1,50.7,30.21,East,84,4.0,13.0,64,0.00,,SKC,0.00,VWS V14.01,2013-04-23 15:51:00,
2013-04-23 11:56:00,63.5,51.5,30.21,East,89,7.0,13.0,65,0.00,,SKC,0.00,VWS V14.01,2013-04-23 15:56:00,
2013-04-23 12:00:00,64.3,52.3,30.21,NE,48,3.0,13.0,65,0.00,,-RA,0.00,VWS V14.01,2013-04-23 16:00:00,
2013-04-23 12:01:00,64.4,52.0,30.21,NNE,15,6.0,10.0,64,0.00,,SKC,0.00,VWS V14.01,2013-04-23 16:01:00,
2013-04-23 12:06:00,64.7,51.4,30.21,North,5,5.0,10.0,62,0.00,,SKC,0.00,VWS V14.01,2013-04-23 16:06:00,
2013-04-23 12:11:00,64.4,51.5,30.21,NNW,333,7.0,11.0,63,0.00,,SKC,0.00,VWS V14.01,2013-04-23 16:11:00,
2013-04-23 12:16:00,64.0,51.6,30.20,NW,314,6.0,11.0,64,0.00,,SKC,0.00,VWS V14.01,2013-04-23 16:16:00,
2013-04-23 12:21:00,64.3,52.3,30.20,NE,51,0.0,12.0,65,0.00,,SKC,0.00,VWS V14.01,2013-04-23 16:21:00,
2013-04-23 12:26:00,65.0,52.1,30.20,NNE,19,5.0,12.0,63,0.00,,SKC,0.00,VWS V14.01,2013-04-23 16:26:00,
2013-04-23 12:31:00,65.3,51.5,30.20,North,5,0.0,12.0,61,0.00,,SKC,0.00,VWS V14.01,2013-04-23 16:31:00,
2013-04-23 12:36:00,65.8,51.5,30.20,East,80,10.0,12.0,60,0.00,,SKC,0.00,VWS V14.01,2013-04-23 16:36:00,
2013-04-23 12:41:00,65.4,51.6,30.19,ENE,64,4.0,13.0,61,0.00,,SKC,0.00,VWS V14.01,2013-04-23 16:41:00,
2013-04-23 12:46:00,65.2,51.9,30.19,ENE,72,4.0,13.0,62,0.00,,SKC,0.00,VWS V14.01,2013-04-23 16:46:00,
2013-04-23 12:51:00,66.1,52.7,30.19,NNE,27,3.0,13.0,62,0.00,,SKC,0.00,VWS V14.01,2013-04-23 16:51:00,
2013-04-23 12:56:00,66.1,51.4,30.19,North,355,1.0,13.0,59,0.00,,SKC,0.00,VWS V14.01,2013-04-23 16:56:00,
2013-04-23 13:00:00,66.7,52.4,30.18,ENE,67,4.0,13.0,60,0.00,,-RA,0.00,VWS V14.01,2013-04-23 17:00:00,
2013-04-23 13:01:00,66.8,52.5,30.18,East,98,2.0,2.0,60,0.00,,SKC,0.00,VWS V14.01,2013-04-23 17:01:00,
2013-04-23 13:06:00,67.5,52.7,30.18,NE,55,0.0,6.0,59,0.00,,SKC,0.00,VWS V14.01,2013-04-23 17:06:00,
2013-04-23 13:11:00,67.9,52.6,30.18,North,355,3.0,7.0,58,0.00,,SKC,0.00,VWS V14.01,2013-04-23 17:11:00,
2013-04-23 13:16:00,68.1,52.8,30.17,ENE,70,1.0,7.0,58,0.00,,SKC,0.00,VWS V14.01,2013-04-23 17:16:00,
2013-04-23 13:21:00,67.4,51.2,30.17,SE,127,1.0,12.0,56,0.00,,SKC,0.00,VWS V14.01,2013-04-23 17:21:00,
2013-04-23 13:26:00,67.2,52.4,30.17,NNE,19,2.0,12.0,59,0.00,,SKC,0.00,VWS V14.01,2013-04-23 17:26:00,
2013-04-23 13:31:00,67.9,53.1,30.17,NNE,14,0.0,12.0,59,0.00,,SKC,0.00,VWS V14.01,2013-04-23 17:31:00,
2013-04-23 13:36:00,69.2,53.8,30.16,ENE,68,1.0,12.0,58,0.00,,SKC,0.00,VWS V14.01,2013-04-23 17:36:00,
2013-04-23 13:41:00,69.8,52.4,30.16,East,85,9.0,12.0,54,0.00,,SKC,0.00,VWS V14.01,2013-04-23 17:41:00,
2013-04-23 13:46:00,69.0,53.2,30.16,NE,53,2.0,12.0,57,0.00,,SKC,0.00,VWS V14.01,2013-04-23 17:46:00,
2013-04-23 13:51:00,69.2,52.8,30.16,East,90,1.0,12.0,56,0.00,,SKC,0.00,VWS V14.01,2013-04-23 17:51:00,
2013-04-23 13:56:00,69.1,52.8,30.16,ENE,72,4.0,12.0,56,0.00,,SKC,0.00,VWS V14.01,2013-04-23 17:56:00,
2013-04-23 14:00:00,69.2,52.4,30.16,ENE,66,7.0,12.0,55,0.00,,-RA,0.00,VWS V14.01,2013-04-23 18:00:00,
2013-04-23 14:01:00,69.2,52.4,30.16,ENE,66,7.0,12.0,55,0.00,,SKC,0.00,VWS V14.01,2013-04-23 18:01:00,
2013-04-23 14:06:00,69.3,52.5,30.16,WNW,282,1.0,5.0,55,0.00,,SKC,0.00,VWS V14.01,2013-04-23 18:06:00,
2013-04-23 14:11:00,70.0,53.6,30.15,WNW,294,4.0,5.0,56,0.00,,SKC,0.00,VWS V14.01,2013-04-23 18:11:00,
2013-04-23 14:16:00,70.2,53.3,30.15,ENE,67,2.0,7.0,55,0.00,,SKC,0.00,VWS V14.01,2013-04-23 18:16:00,
2013-04-23 14:21:00,70.5,53.6,30.15,NE,49,1.0,9.0,55,0.00,,SKC,0.00,VWS V14.01,2013-04-23 18:21:00,
2013-04-23 14:26:00,71.3,53.3,30.15,NE,46,1.0,9.0,53,0.00,,SKC,0.00,VWS V14.01,2013-04-23 18:26:00,
2013-04-23 14:31:00,70.4,53.0,30.15,East,79,3.0,10.0,54,0.00,,SKC,0.00,VWS V14.01,2013-04-23 18:31:00,
2013-04-23 14:36:00,70.0,52.6,30.15,ESE,115,1.0,10.0,54,0.00,,SKC,0.00,VWS V14.01,2013-04-23 18:36:00,
2013-04-23 14:41:00,70.2,52.8,30.15,ESE,120,0.0,10.0,54,0.00,,SKC,0.00,VWS V14.01,2013-04-23 18:41:00,
2013-04-23 14:46:00,70.6,52.7,30.15,NW,326,1.0,10.0,53,0.00,,SKC,0.00,VWS V14.01,2013-04-23 18:46:00,
2013-04-23 14:51:00,71.0,53.5,30.15,ENE,76,0.0,10.0,54,0.00,,SKC,0.00,VWS V14.01,2013-04-23 18:51:00,
2013-04-23 14:56:00,71.3,52.8,30.14,East,91,5.0,10.0,52,0.00,,SKC,0.00,VWS V14.01,2013-04-23 18:56:00,
2013-04-23 15:00:00,71.5,53.5,30.14,WNW,292,5.0,10.0,53,0.00,,-RA,0.00,VWS V14.01,2013-04-23 19:00:00,
2013-04-23 15:01:00,71.5,53.5,30.14,WNW,292,5.0,10.0,53,0.00,,SKC,0.00,VWS V14.01,2013-04-23 19:01:00,
2013-04-23 15:06:00,71.8,53.2,30.14,NNW,331,0.0,6.0,52,0.00,,SKC,0.00,VWS V14.01,2013-04-23 19:06:00,
2013-04-23 15:11:00,71.8,53.2,30.14,ENE,67,9.0,9.0,52,0.00,,SKC,0.00,VWS V14.01,2013-04-23 19:11:00,
2013-04-23 15:16:00,71.3,52.3,30.14,NE,36,3.0,11.0,51,0.00,,SKC,0.00,VWS V14.01,2013-04-23 19:16:00,
2013-04-23 15:21:00,70.7,52.2,30.14,South,177,1.0,11.0,52,0.00,,SKC,0.00,VWS V14.01,2013-04-23 19:21:00,
2013-04-23 15:26:00,70.9,52.9,30.13,West,274,3.0,11.0,53,0.00,,SKC,0.00,VWS V14.01,2013-04-23 19:26:00,
2013-04-23 15:31:00,71.9,52.8,30.13,NE,36,0.0,11.0,51,0.00,,SKC,0.00,VWS V14.01,2013-04-23 19:31:00,
2013-04-23 15:36:00,72.4,52.2,30.13,North,360,2.0,11.0,49,0.00,,SKC,0.00,VWS V14.01,2013-04-23 19:36:00,
2013-04-23 15:41:00,72.5,52.8,30.12,NE,36,1.0,11.0,50,0.00,,SKC,0.00,VWS V14.01,2013-04-23 19:41:00,
2013-04-23 15:46:00,72.5,51.7,30.12,East,79,1.0,11.0,48,0.00,,SKC,0.00,VWS V14.01,2013-04-23 19:46:00,
2013-04-23 15:51:00,72.2,52.0,30.12,ENE,68,1.0,11.0,49,0.00,,SKC,0.00,VWS V14.01,2013-04-23 19:51:00,
2013-04-23 15:56:00,72.2,52.0,30.12,ESE,121,2.0,11.0,49,0.00,,SKC,0.00,VWS V14.01,2013-04-23 19:56:00,
2013-04-23 16:00:00,72.3,52.6,30.12,ENE,68,3.0,11.0,50,0.00,,-RA,0.00,VWS V14.01,2013-04-23 20:00:00,
2013-04-23 16:01:00,72.3,52.6,30.12,ENE,68,3.0,11.0,50,0.00,,SKC,0.00,VWS V14.01,2013-04-23 20:01:00,
2013-04-23 16:06:00,72.4,53.3,30.12,ESE,110,6.0,6.0,51,0.00,,SKC,0.00,VWS V14.01,2013-04-23 20:06:00,
2013-04-23 16:11:00,72.2,53.1,30.12,SSE,153,1.0,6.0,51,0.00,,SKC,0.00,VWS V14.01,2013-04-23 20:11:00,
2013-04-23 16:16:00,72.8,53.6,30.11,SSE,154,1.0,6.0,51,0.00,,SKC,0.00,VWS V14.01,2013-04-23 20:16:00,
2013-04-23 16:21:00,73.0,54.4,30.11,ENE,67,3.0,7.0,52,0.00,,SKC,0.00,VWS V14.01,2013-04-23 20:21:00,
2013-04-23 16:26:00,72.4,53.3,30.11,ENE,68,2.0,9.0,51,0.00,,SKC,0.00,VWS V14.01,2013-04-23 20:26:00,
2013-04-23 16:31:00,72.5,53.4,30.10,SSE,168,4.0,9.0,51,0.00,,SKC,0.00,VWS V14.01,2013-04-23 20:31:00,
2013-04-23 16:36:00,72.3,53.7,30.10,ENE,71,2.0,10.0,52,0.00,,SKC,0.00,VWS V14.01,2013-04-23 20:36:00,
2013-04-23 16:41:00,72.2,54.1,30.10,ENE,59,4.0,10.0,53,0.00,,SKC,0.00,VWS V14.01,2013-04-23 20:41:00,
2013-04-23 16:46:00,72.7,54.1,30.10,ENE,65,2.0,10.0,52,0.00,,SKC,0.00,VWS V14.01,2013-04-23 20:46:00,
2013-04-23 16:51:00,72.7,54.1,30.10,East,92,6.0,10.0,52,0.00,,SKC,0.00,VWS V14.01,2013-04-23 20:51:00,
2013-04-23 16:56:00,72.6,52.9,30.10,East,82,5.0,10.0,50,0.00,,SKC,0.00,VWS V14.01,2013-04-23 20:56:00,
2013-04-23 17:00:00,72.7,52.5,30.10,South,174,0.0,10.0,49,0.00,,-RA,0.00,VWS V14.01,2013-04-23 21:00:00,
2013-04-23 17:01:00,72.7,52.5,30.10,South,174,0.0,1.0,49,0.00,,SKC,0.00,VWS V14.01,2013-04-23 21:01:00,
2013-04-23 17:06:00,72.5,51.7,30.10,ESE,112,1.0,5.0,48,0.00,,SKC,0.00,VWS V14.01,2013-04-23 21:06:00,
2013-04-23 17:11:00,72.7,52.5,30.10,West,277,0.0,5.0,49,0.00,,SKC,0.00,VWS V14.01,2013-04-23 21:11:00,
2013-04-23 17:16:00,72.6,52.9,30.10,East,87,3.0,7.0,50,0.00,,SKC,0.00,VWS V14.01,2013-04-23 21:16:00,
2013-04-23 17:21:00,72.9,54.3,30.10,East,88,1.0,7.0,52,0.00,,SKC,0.00,VWS V14.01,2013-04-23 21:21:00,
2013-04-23 17:26:00,73.3,54.1,30.09,ENE,74,3.0,7.0,51,0.00,,SKC,0.00,VWS V14.01,2013-04-23 21:26:00,
2013-04-23 17:31:00,72.8,53.6,30.10,East,79,5.0,7.0,51,0.00,,SKC,0.00,VWS V14.01,2013-04-23 21:31:00,
2013-04-23 17:36:00,72.4,53.3,30.10,ENE,78,2.0,7.0,51,0.00,,SKC,0.00,VWS V14.01,2013-04-23 21:36:00,
2013-04-23 17:41:00,72.2,52.5,30.10,SE,134,0.0,7.0,50,0.00,,SKC,0.00,VWS V14.01,2013-04-23 21:41:00,
2013-04-23 17:46:00,72.3,52.1,30.10,ENE,78,1.0,7.0,49,0.00,,SKC,0.00,VWS V14.01,2013-04-23 21:46:00,
2013-04-23 17:51:00,72.4,52.2,30.10,ESE,117,0.0,7.0,49,0.00,,SKC,0.00,VWS V14.01,2013-04-23 21:51:00,
2013-04-23 17:56:00,72.4,52.2,30.10,East,82,2.0,7.0,49,0.00,,SKC,0.00,VWS V14.01,2013-04-23 21:56:00,
2013-04-23 18:00:00,72.1,51.9,30.09,East,96,4.0,9.0,49,0.00,,-RA,0.00,VWS V14.01,2013-04-23 22:00:00,
2013-04-23 18:01:00,72.0,52.4,30.09,East,90,3.0,3.0,50,0.00,,SKC,0.00,VWS V14.01,2013-04-23 22:01:00,
2013-04-23 18:06:00,72.1,52.5,30.09,ENE,70,1.0,6.0,50,0.00,,SKC,0.00,VWS V14.01,2013-04-23 22:06:00,
2013-04-23 18:11:00,72.2,52.5,30.09,East,86,1.0,6.0,50,0.00,,SKC,0.00,VWS V14.01,2013-04-23 22:11:00,
2013-04-23 18:16:00,72.3,52.1,30.09,East,90,2.0,6.0,49,0.00,,SKC,0.00,VWS V14.01,2013-04-23 22:16:00,
2013-04-23 18:21:00,72.3,52.6,30.09,ENE,75,1.0,6.0,50,0.00,,SKC,0.00,VWS V14.01,2013-04-23 22:21:00,
2013-04-23 18:26:00,72.3,53.2,30.09,ESE,105,2.0,7.0,51,0.00,,SKC,0.00,VWS V14.01,2013-04-23 22:26:00,
2013-04-23 18:31:00,72.1,52.5,30.09,SE,135,1.0,7.0,50,0.00,,SKC,0.00,VWS V14.01,2013-04-23 22:31:00,
2013-04-23 18:36:00,72.0,52.9,30.09,ENE,75,1.0,7.0,51,0.00,,SKC,0.00,VWS V14.01,2013-04-23 22:36:00,
2013-04-23 18:41:00,71.9,52.3,30.09,ENE,62,2.0,7.0,50,0.00,,SKC,0.00,VWS V14.01,2013-04-23 22:41:00,
2013-04-23 18:46:00,71.8,52.2,30.09,ENE,62,0.0,7.0,50,0.00,,SKC,0.00,VWS V14.01,2013-04-23 22:46:00,
2013-04-23 18:51:00,71.8,52.2,30.09,ENE,61,0.0,7.0,50,0.00,,SKC,0.00,VWS V14.01,2013-04-23 22:51:00,
2013-04-23 18:56:00,71.7,52.1,30.09,NE,52,0.0,7.0,50,0.00,,SKC,0.00,VWS V14.01,2013-04-23 22:56:00,
2013-04-23 19:00:00,71.7,52.1,30.09,SE,126,0.0,7.0,50,0.00,,-RA,0.00,VWS V14.01,2013-04-23 23:00:00,
2013-04-23 19:01:00,71.6,52.0,30.09,SE,126,0.0,1.0,50,0.00,,SKC,0.00,VWS V14.01,2013-04-23 23:01:00,
2013-04-23 19:06:00,71.6,52.5,30.09,SE,129,0.0,2.0,51,0.00,,SKC,0.00,VWS V14.01,2013-04-23 23:06:00,
2013-04-23 19:11:00,71.5,52.4,30.09,ESE,103,2.0,3.0,51,0.00,,SKC,0.00,VWS V14.01,2013-04-23 23:11:00,
2013-04-23 19:16:00,71.3,52.8,30.09,ESE,103,0.0,3.0,52,0.00,,SKC,0.00,VWS V14.01,2013-04-23 23:16:00,
2013-04-23 19:21:00,70.9,52.9,30.09,ESE,103,1.0,3.0,53,0.00,,SKC,0.00,VWS V14.01,2013-04-23 23:21:00,
2013-04-23 19:26:00,70.7,52.8,30.10,ESE,103,0.0,3.0,53,0.00,,SKC,0.00,VWS V14.01,2013-04-23 23:26:00,
2013-04-23 19:31:00,70.3,52.9,30.10,ESE,103,1.0,3.0,54,0.00,,SKC,0.00,VWS V14.01,2013-04-23 23:31:00,
2013-04-23 19:36:00,69.9,53.5,30.10,ESE,103,0.0,3.0,56,0.00,,SKC,0.00,VWS V14.01,2013-04-23 23:36:00,
2013-04-23 19:41:00,69.5,53.6,30.10,ESE,103,0.0,3.0,57,0.00,,SKC,0.00,VWS V14.01,2013-04-23 23:41:00,
2013-04-23 19:46:00,69.1,53.7,30.10,ESE,103,0.0,3.0,58,0.00,,SKC,0.00,VWS V14.01,2013-04-23 23:46:00,
2013-04-23 19:51:00,68.6,53.7,30.10,ESE,103,0.0,3.0,59,0.00,,SKC,0.00,VWS V14.01,2013-04-23 23:51:00,
2013-04-23 19:56:00,68.1,53.7,30.10,ESE,103,0.0,3.0,60,0.00,,SKC,0.00,VWS V14.01,2013-04-23 23:56:00,
2013-04-23 20:00:00,67.6,53.7,30.10,ESE,103,0.0,3.0,61,0.00,,-RA,0.00,VWS V14.01,2013-04-24 00:00:00,
2013-04-23 20:01:00,67.5,53.6,30.10,ESE,103,0.0,0.0,61,0.00,,SKC,0.00,VWS V14.01,2013-04-24 00:01:00,
2013-04-23 20:06:00,67.0,53.6,30.10,ESE,103,0.0,1.0,62,0.00,,SKC,0.00,VWS V14.01,2013-04-24 00:06:00,
2013-04-23 20:11:00,66.4,53.9,30.10,ESE,103,0.0,1.0,64,0.00,,SKC,0.00,VWS V14.01,2013-04-24 00:11:00,
2013-04-23 20:16:00,65.8,53.7,30.10,ESE,103,1.0,1.0,65,0.00,,SKC,0.00,VWS V14.01,2013-04-24 00:16:00,
2013-04-23 20:21:00,65.2,53.6,30.10,East,97,0.0,3.0,66,0.00,,SKC,0.00,VWS V14.01,2013-04-24 00:21:00,
2013-04-23 20:26:00,64.8,53.6,30.10,East,94,0.0,3.0,67,0.00,,SKC,0.00,VWS V14.01,2013-04-24 00:26:00,
2013-04-23 20:31:00,64.5,53.3,30.11,East,94,0.0,3.0,67,0.00,,SKC,0.00,VWS V14.01,2013-04-24 00:31:00,
2013-04-23 20:36:00,64.2,53.4,30.11,East,94,2.0,3.0,68,0.00,,SKC,0.00,VWS V14.01,2013-04-24 00:36:00,
2013-04-23 20:41:00,64.0,53.2,30.10,ENE,67,0.0,3.0,68,0.00,,SKC,0.00,VWS V14.01,2013-04-24 00:41:00,
2013-04-23 20:46:00,63.7,53.0,30.10,ENE,67,0.0,3.0,68,0.00,,SKC,0.00,VWS V14.01,2013-04-24 00:46:00,
2013-04-23 20:51:00,63.3,53.0,30.10,ENE,67,1.0,3.0,69,0.00,,SKC,0.00,VWS V14.01,2013-04-24 00:51:00,
2013-04-23 20:56:00,63.2,52.9,30.10,ENE,68,0.0,3.0,69,0.00,,SKC,0.00,VWS V14.01,2013-04-24 00:56:00,
2013-04-23 21:00:00,63.1,52.8,30.11,ENE,68,0.0,3.0,69,0.00,,-RA,0.00,VWS V14.01,2013-04-24 01:00:00,
2013-04-23 21:01:00,63.1,52.8,30.10,ENE,68,0.0,0.0,69,0.00,,SKC,0.00,VWS V14.01,2013-04-24 01:01:00,
2013-04-23 21:06:00,63.0,52.7,30.10,ENE,68,0.0,3.0,69,0.00,,SKC,0.00,VWS V14.01,2013-04-24 01:06:00,
2013-04-23 21:11:00,62.7,52.8,30.11,ENE,68,0.0,3.0,70,0.00,,SKC,0.00,VWS V14.01,2013-04-24 01:11:00,
2013-04-23 21:16:00,62.5,52.6,30.11,ENE,68,0.0,3.0,70,0.00,,SKC,0.00,VWS V14.01,2013-04-24 01:16:00,
2013-04-23 21:21:00,62.3,52.8,30.11,ENE,68,1.0,3.0,71,0.00,,SKC,0.00,VWS V14.01,2013-04-24 01:21:00,
2013-04-23 21:26:00,62.2,52.7,30.11,ESE,119,0.0,3.0,71,0.00,,SKC,0.00,VWS V14.01,2013-04-24 01:26:00,
2013-04-23 21:31:00,62.3,52.8,30.11,ESE,119,0.0,3.0,71,0.00,,SKC,0.00,VWS V14.01,2013-04-24 01:31:00,
2013-04-23 21:36:00,62.4,52.5,30.11,ESE,119,0.0,3.0,70,0.00,,SKC,0.00,VWS V14.01,2013-04-24 01:36:00,
2013-04-23 21:41:00,62.5,52.6,30.11,ESE,118,2.0,3.0,70,0.00,,SKC,0.00,VWS V14.01,2013-04-24 01:41:00,
2013-04-23 21:46:00,62.5,52.6,30.12,ESE,118,0.0,3.0,70,0.00,,SKC,0.00,VWS V14.01,2013-04-24 01:46:00,
2013-04-23 21:51:00,62.2,52.7,30.12,ESE,118,0.0,3.0,71,0.00,,SKC,0.00,VWS V14.01,2013-04-24 01:51:00,
2013-04-23 21:56:00,61.9,52.8,30.12,ESE,108,0.0,3.0,72,0.00,,SKC,0.00,VWS V14.01,2013-04-24 01:56:00,
2013-04-23 22:00:00,61.7,52.6,30.12,ESE,108,0.0,3.0,72,0.00,,-RA,0.00,VWS V14.01,2013-04-24 02:00:00,
2013-04-23 22:01:00,61.7,52.6,30.12,ESE,108,0.0,0.0,72,0.00,,SKC,0.00,VWS V14.01,2013-04-24 02:01:00,
2013-04-23 22:06:00,61.4,52.7,30.12,ESE,108,0.0,1.0,73,0.00,,SKC,0.00,VWS V14.01,2013-04-24 02:06:00,
2013-04-23 22:11:00,61.3,52.6,30.12,ESE,120,2.0,2.0,73,0.00,,SKC,0.00,VWS V14.01,2013-04-24 02:11:00,
2013-04-23 22:16:00,61.5,52.8,30.12,ESE,109,3.0,4.0,73,0.00,,SKC,0.00,VWS V14.01,2013-04-24 02:16:00,
2013-04-23 22:21:00,61.8,52.7,30.12,SE,136,1.0,7.0,72,0.00,,SKC,0.00,VWS V14.01,2013-04-24 02:21:00,
2013-04-23 22:26:00,61.9,52.8,30.12,ESE,113,3.0,7.0,72,0.00,,SKC,0.00,VWS V14.01,2013-04-24 02:26:00,
2013-04-23 22:31:00,61.8,52.7,30.12,SSE,151,2.0,7.0,72,0.00,,SKC,0.00,VWS V14.01,2013-04-24 02:31:00,
2013-04-23 22:36:00,61.6,52.5,30.13,SE,125,3.0,7.0,72,0.00,,SKC,0.00,VWS V14.01,2013-04-24 02:36:00,
2013-04-23 22:41:00,61.4,52.7,30.12,SE,128,1.0,7.0,73,0.00,,SKC,0.00,VWS V14.01,2013-04-24 02:41:00,
2013-04-23 22:46:00,61.1,52.8,30.12,ESE,119,2.0,7.0,74,0.00,,SKC,0.00,VWS V14.01,2013-04-24 02:46:00,
2013-04-23 22:51:00,60.8,52.5,30.13,ESE,109,1.0,7.0,74,0.00,,SKC,0.00,VWS V14.01,2013-04-24 02:51:00,
2013-04-23 22:56:00,60.5,52.5,30.13,ESE,112,0.0,7.0,75,0.00,,SKC,0.00,VWS V14.01,2013-04-24 02:56:00,
2013-04-23 23:00:00,60.3,52.7,30.13,ESE,119,2.0,7.0,76,0.00,,-RA,0.00,VWS V14.01,2013-04-24 03:00:00,
2013-04-23 23:01:00,60.3,52.7,30.12,SE,137,1.0,2.0,76,0.00,,SKC,0.00,VWS V14.01,2013-04-24 03:01:00,
2013-04-23 23:06:00,60.0,52.4,30.12,SSE,148,4.0,5.0,76,0.00,,SKC,0.00,VWS V14.01,2013-04-24 03:06:00,
2013-04-23 23:11:00,59.8,52.6,30.12,SE,134,4.0,5.0,77,0.00,,SKC,0.00,VWS V14.01,2013-04-24 03:11:00,
2013-04-23 23:16:00,59.6,52.4,30.13,SSE,148,2.0,7.0,77,0.00,,SKC,0.00,VWS V14.01,2013-04-24 03:16:00,
2013-04-23 23:21:00,59.4,52.5,30.12,SE,138,3.0,7.0,78,0.00,,SKC,0.00,VWS V14.01,2013-04-24 03:21:00,
2013-04-23 23:26:00,59.1,52.6,30.13,ESE,119,5.0,7.0,79,0.00,,SKC,0.00,VWS V14.01,2013-04-24 03:26:00,
2013-04-23 23:31:00,59.0,52.5,30.13,SE,136,3.0,7.0,79,0.00,,SKC,0.00,VWS V14.01,2013-04-24 03:31:00,
2013-04-23 23:36:00,59.0,52.5,30.13,SSE,148,1.0,7.0,79,0.00,,SKC,0.00,VWS V14.01,2013-04-24 03:36:00,
2013-04-23 23:41:00,59.0,52.8,30.13,ESE,115,3.0,7.0,80,0.00,,SKC,0.00,VWS V14.01,2013-04-24 03:41:00,
2013-04-23 23:46:00,59.0,52.8,30.13,SSE,156,1.0,7.0,80,0.00,,SKC,0.00,VWS V14.01,2013-04-24 03:46:00,
2013-04-23 23:51:00,58.8,52.7,30.13,SE,143,2.0,7.0,80,0.00,,SKC,0.00,VWS V14.01,2013-04-24 03:51:00,
2013-04-23 23:56:00,58.7,52.9,30.13,SSE,167,4.0,7.0,81,0.00,,SKC,0.00,VWS V14.01,2013-04-24 03:56:00,